This is the latest recevied weather packets stored in our database for station/object N5PUP-13. If no packets are shown the sender has not sent any weather packets the latest 10 day(s).
| Time | Temp. | Humidity | Pressure | Rain* | Wind** | Luminosity | Snow |
|---|---|---|---|---|---|---|---|
| 1788120300 | 39.44° C | 26% | 1012.1 hPa | 0 mm | - | - | - |
| 1788120000 | 39.44° C | 26% | 1012.3 hPa | 0 mm | - | - | - |
| 1788119700 | 40° C | 25% | 1012.2 hPa | 0 mm | - | - | - |
| 1788119400 | 40° C | 25% | 1012.4 hPa | 0 mm | - | - | - |
| 1788119100 | 40° C | 26% | 1012.4 hPa | 0 mm | - | - | - |
| 1788118800 | 39.44° C | 26% | 1012.4 hPa | 0 mm | - | - | - |
| 1788118500 | 40° C | 26% | 1012.6 hPa | 0 mm | - | - | - |
| 1788118200 | 40° C | 27% | 1012.6 hPa | 0 mm | - | - | - |
| 1788117900 | 40° C | 26% | 1012.7 hPa | 0 mm | - | - | - |
| 1788117600 | 39.44° C | 27% | 1012.7 hPa | 0 mm | - | - | - |
| 1788117300 | 39.44° C | 27% | 1012.6 hPa | 0 mm | - | - | - |
| 1788117000 | 40° C | 26% | 1012.8 hPa | 0 mm | - | - | - |
| 1788116700 | 39.44° C | 27% | 1012.8 hPa | 0 mm | - | - | - |
| 1788116400 | 40° C | 27% | 1012.8 hPa | 0 mm | - | - | - |
| 1788116100 | 39.44° C | 27% | 1012.9 hPa | 0 mm | - | - | - |
| 1788115800 | 38.89° C | 28% | 1013 hPa | 0 mm | - | - | - |
| 1788115500 | 39.44° C | 28% | 1013 hPa | 0 mm | - | - | - |
| 1788115200 | 38.89° C | 28% | 1013.1 hPa | 0 mm | - | - | - |
| 1788114900 | 38.89° C | 28% | 1013.1 hPa | 0 mm | - | - | - |
| 1788114600 | 39.44° C | 28% | 1013.2 hPa | 0 mm | - | - | - |
| 1788114300 | 38.33° C | 29% | 1013.2 hPa | 0 mm | - | - | - |
| 1788114000 | 38.89° C | 29% | 1013.2 hPa | 0 mm | - | - | - |
| 1788113700 | 38.33° C | 29% | 1013.4 hPa | 0 mm | - | - | - |
| 1788113400 | 38.33° C | 29% | 1013.3 hPa | 0 mm | - | - | - |
| 1788113100 | 38.89° C | 29% | 1013.5 hPa | 0 mm | - | - | - |
* Rain latest hour (hover to see other rain measurements)
** Current wind speed in m/s (hover to see current wind gust speed)